RH
37 38 49 47 44 33 29 25 24 30 32 42 47 34 36 37 36 34 33 31 30 29 29 29 29 28 28 29 29 30 30 28 28 25 24 23 27 25 26 27 28 28 28 28
43 38 45 43 41 40 34 32 30 32 35 32 42 36 32 32 30 28 28 28 28 28 29 31 32 32 31 30 29 29 30 31 32 31 28 27 24 27 28 28 30 30 32 32
48 48 46 46 41 38 42 40 36 38 41 38 46 48 44 41 40 40 38 37 36 37 37 36 36 36 35 35 34 32 32 32 33 35 35 32 31 29 33 32 31 32 34 35
53 50 48 44 47 44 43 44 44 44 47 40 45 38 73 52 47 46 45 44 42 43 44 43 42 42 41 40 38 36 35 36 37 40 40 39 37 35 33 28 32 33 34 36
54 47 47 47 48 51 47 45 42 50 49 43 51 46 80 62 63 55 52 52 51 50 48 47 45 44 43 42 41 40 39 39 38 41 46 46 45 42 40 43 38 34 36 38
60 48 47 64 54 52 55 51 51 61 54 56 46 45 80 86 83 56 58 60 58 56 54 52 50 49 46 45 43 42 43 43 43 46 46 50 54 54 51 51 55 56 47 39
58 55 54 54 55 53 55 62 50 53 59 40 34 40 78 67 67 64 64 66 64 62 60 58 55 54 53 53 52 50 49 49 50 55 58 62 63 66 66 66 68 70 66 62
59 69 59 54 59 64 50 56 38 38 37 30 52 43 81 65 64 65 71 71 68 66 65 63 60 57 55 54 52 53 53 53 54 53 58 64 77 79 80 80 80 82 81 78
63 70 64 60 57 60 68 70 58 55 43 45 51 70 80 75 67 68 72 73 74 73 69 64 60 56 54 52 50 50 50 48 48 50 51 55 63 86 95 95 99 99 99 100
71 70 71 69 71 69 66 68 62 61 51 44 30 57 80 80 73 72 74 78 78 72 62 51 45 41 39 39 36 36 36 36 36 36 36 41 49 56 83 99 100 99 100 100
67 57 64 76 78 79 75 75 66 64 58 41 29 56 94 89 82 86 86 80 64 47 36 31 27 25 23 21 18 17 16 16 16 18 23 28 32 40 52 66 92 99 100 100
73 56 46 62 60 66 68 73 74 64 43 58 69 69 63 70 79 78 72 54 34 27 27 28 27 27 27 26 25 25 25 25 24 23 24 27 31 38 46 57 65 72 87 96
28 19 33 50 23 16 18 24 27 54 63 66 52 61 63 74 76 65 41 31 33 39 44 46 46 45 42 42 41 39 37 38 38 38 38 38 39 42 46 53 62 73 79 84
14 10 25 43 66 67 52 49 50 44 59 58 56 61 68 62 48 40 54 63 62 58 55 54 53 51 49 48 48 48 49 47 46 46 46 46 46 48 50 54 57 61 64 73
16 10 10 14 17 18 19 24 43 52 43 43 42 41 41 42 60 73 71 65 64 66 64 61 59 59 58 56 52 50 47 44 42 41 41 40 41 43 45 48 56 65 68 69
11 18 16 24 26 31 30 31 30 30 31 35 40 43 44 67 70 64 69 72 71 69 68 67 65 61 57 53 49 47 44 42 41 41 43 42 43 43 42 42 42 41 42 61
16 17 23 64 45 45 58 47 46 45 54 66 78 78 65 64 68 72 74 74 72 68 64 58 51 47 40 30 23 19 16 16 15 14 14 14 15 18 20 24 26 26 25 25
40 40 44 99 90 80 68 60 72 72 68 67 64 62 62 65 71 72 69 68 64 55 44 30 22 18 16 15 15 15 15 15 15 15 14 14 14 13 13 12 12 12 12 12
69 84 68 98 80 87 74 69 71 73 65 62 62 67 70 67 69 66 64 57 45 31 21 16 15 15 16 17 17 17 18 18 18 19 18 18 18 16 15 14 13 13 12 12
80 77 92 72 73 64 72 67 71 79 71 66 65 66 71 74 77 57 42 24 16 16 17 18 20 22 24 27 28 29 30 30 30 30 30 30 29 29 28 26 24 22 20 17
98 90 98 89 79 85 80 84 80 76 80 75 80 77 62 34 24 18 17 20 25 28 31 35 36 37 39 39 39 38 38 38 36 35 35 34 34 34 34 34 33 32 30 27
89 89 94 83 98 86 72 74 79 81 78 59 27 17 17 20 26 30 34 38 40 40 41 41 35 29 24 19 15 13 12 12 12 12 12 13 14 14 13 13 13 14 16 21
76 71 77 70 86 82 85 79 60 28 17 19 26 32 35 39 43 44 40 31 23 17 14 13 13 13 14 17 19 20 21 20 20 20 20 20 20 20 19 19 18 17 17 16
77 80 83 79 72 69 47 18 19 27 31 34 36 35 28 20 17 16 15 15 14 15 17 19 20 20 21 22 24 25 25 25 24 24 25 25 24 24 23 23 22 21 21 20
79 77 73 58 26 19 23 26 27 23 16 14 15 16 16 16 16 17 18 20 20 20 20 21 24 27 31 34 37 39 41 39 36 37 37 36 35 33 31 30 28 28 28 28
74 42 18 23 25 26 21 14 12 12 12 13 14 16 18 18 18 19 20 22 25 28 33 35 40 42 46 46 43 46 47 44 42 41 42 43 44 44 44 41 37 36 36 36
Wind_Speed
18 18 19 16 18 12 4 8 9 11 14 10 10 13 13 18 20 21 21 21 21 22 23 24 25 26 27 28 28 28 29 30 30 31 32 32 31 30 28 27 26 26 25 25
18 23 16 13 16 17 18 12 13 10 14 13 14 18 20 22 24 26 27 28 28 28 28 28 28 28 28 30 31 32 33 34 34 34 34 35 36 34 33 32 31 30 29 29
16 10 13 23 20 19 17 16 14 10 10 13 15 15 19 22 22 23 25 26 27 27 27 27 26 25 26 26 28 30 33 35 37 38 37 36 37 39 38 37 36 35 34 34
15 21 18 9 14 16 15 14 16 13 10 13 20 5 15 21 24 26 26 25 23 20 18 16 17 17 18 19 21 23 26 31 34 38 40 40 41 42 45 45 43 41 41 40
10 13 18 22 18 14 14 17 16 15 17 15 14 10 11 16 15 19 20 18 16 16 16 16 17 18 18 18 19 20 21 23 26 31 36 40 43 45 46 45 46 48 46 44
13 15 11 9 12 14 11 9 7 6 8 10 22 20 8 12 24 22 18 18 17 17 17 17 16 16 16 16 18 19 20 21 22 25 28 34 39 43 46 47 46 46 48 49
16 16 17 13 10 13 14 12 6 6 6 7 12 18 9 20 20 16 15 15 15 15 14 14 14 14 15 15 16 18 20 22 24 25 25 26 31 37 41 45 46 47 47 48
17 8 18 19 17 9 21 17 9 7 10 8 6 8 10 14 16 14 13 13 13 13 13 14 15 16 17 18 19 20 21 21 22 24 26 28 27 29 35 40 44 47 48 48
10 7 15 14 18 17 11 14 15 8 12 5 9 5 8 13 13 13 12 11 11 12 14 17 20 21 22 24 25 26 27 28 28 27 27 26 29 31 31 33 39 43 46 47
9 4 13 15 13 16 12 12 6 10 5 11 11 8 5 10 12 12 12 11 12 14 18 21 23 26 28 31 32 32 32 33 33 32 31 30 30 31 33 35 35 37 43 47
15 10 5 13 14 12 9 8 10 8 6 5 10 5 8 14 11 9 9 11 15 20 24 27 30 32 34 35 36 37 38 38 38 38 37 36 35 34 35 36 38 37 39 43
15 10 6 9 12 15 15 15 13 8 8 6 6 4 8 9 10 11 14 17 22 26 28 29 30 30 30 30 31 32 32 33 34 35 36 37 38 38 38 39 41 42 45 46
12 6 5 1 9 14 13 14 15 15 14 7 5 4 7 11 13 14 20 25 27 28 27 26 26 26 28 29 30 31 32 31 32 33 34 35 36 37 39 39 40 43 46 47
11 9 8 1 4 5 5 8 10 10 4 5 8 12 11 15 20 22 23 23 23 23 24 25 27 28 29 30 30 31 32 33 33 34 35 35 36 36 37 38 39 39 42 46
11 8 12 12 11 11 11 13 14 14 17 12 17 16 16 19 21 22 21 22 24 25 26 27 28 28 29 30 31 32 33 34 34 35 36 37 38 39 39 39 39 39 40 40
12 7 9 10 11 11 13 15 16 18 19 20 21 24 23 21 20 23 24 24 26 27 28 29 30 30 31 32 31 30 30 31 32 32 34 35 37 38 39 40 40 39 38 38
9 8 7 3 5 4 8 15 14 13 12 12 10 14 16 21 23 24 26 27 27 28 31 33 34 33 33 33 33 32 33 34 34 35 35 35 36 37 39 40 41 41 41 40
7 8 7 5 3 3 4 4 8 9 9 11 15 18 19 21 23 25 25 28 31 34 33 34 36 36 38 39 40 40 40 41 41 41 41 41 41 41 42 42 43 43 43 43
8 8 5 4 7 5 9 10 10 11 10 11 16 19 19 18 19 30 32 31 34 36 37 38 40 41 41 43 44 44 45 46 46 46 45 45 45 45 45 45 46 46 46 46
8 7 4 6 2 3 1 3 5 8 14 11 11 13 17 25 29 31 31 34 37 39 41 42 43 44 44 44 46 47 48 48 49 50 50 49 49 49 49 49 48 49 49 49
6 6 5 5 5 5 7 7 6 3 6 11 18 25 26 27 29 33 35 37 38 41 42 44 45 46 47 48 49 49 50 51 52 52 52 52 53 53 53 52 52 52 52 53
7 5 3 4 4 6 7 7 8 14 19 22 23 26 29 31 33 35 37 39 40 42 44 45 46 47 47 48 48 48 47 47 48 48 48 47 47 47 49 50 51 51 52 54
7 7 3 5 5 7 12 15 16 18 21 24 28 30 34 35 36 38 39 40 40 40 40 40 39 38 37 37 37 38 38 40 40 41 41 42 42 42 43 44 45 47 48 49
7 6 6 5 7 9 12 15 18 21 24 27 31 33 35 37 36 36 35 34 34 33 32 32 32 31 31 33 34 36 37 39 40 40 39 40 40 41 41 41 41 42 43 44
5 4 4 5 7 11 13 16 20 24 27 29 30 31 32 32 31 31 30 29 29 29 30 31 31 32 33 34 35 36 38 40 40 40 39 39 39 40 40 40 40 39 39 40
5 4 3 5 9 12 16 19 21 23 25 26 27 26 27 29 28 28 27 28 29 30 32 33 34 34 35 36 36 37 38 40 40 39 38 38 39 39 39 40 39 37 38 37
Wind_Direction
216 215 216 217 216 230 193 196 195 183 178 158 221 225 215 222 235 243 248 253 256 255 255 257 257 256 254 251 248 247 249 251 250 248 252 249 246 243 241 241 244 246 249 252
218 228 223 229 219 224 229 225 223 215 215 203 230 244 250 248 245 248 254 258 261 263 264 264 262 260 258 257 255 252 250 249 248 249 249 250 254 248 245 242 242 245 248 249
216 236 233 231 232 232 231 227 222 219 234 204 223 252 246 244 245 245 249 254 258 262 263 264 265 264 262 260 257 254 252 250 248 247 248 248 248 249 244 243 243 242 244 246
234 241 238 223 220 224 235 242 227 219 207 229 211 222 226 241 247 249 252 255 257 256 255 258 262 263 262 260 258 256 254 251 249 247 246 245 246 246 251 247 244 243 243 244
217 237 238 235 234 229 238 240 244 223 230 243 229 239 204 231 240 244 244 244 248 257 269 275 275 274 274 272 270 268 265 261 258 254 250 248 246 246 247 249 252 245 244 246
223 237 216 200 212 192 211 197 193 182 206 236 235 214 182 200 221 244 245 251 261 270 276 280 283 285 286 286 285 284 285 282 274 266 260 255 252 250 248 248 247 249 252 250
222 231 225 216 211 206 199 174 182 208 206 242 202 208 234 226 239 244 255 261 267 275 280 286 292 297 300 303 304 302 301 297 293 289 279 268 261 256 253 250 249 249 250 252
200 217 226 229 209 213 210 200 216 225 221 222 188 216 226 245 246 248 251 256 265 272 279 289 298 302 304 305 306 307 307 306 302 298 291 285 275 266 261 256 253 251 252 253
201 199 208 215 212 202 192 216 228 257 262 282 176 210 243 235 244 253 261 269 273 279 289 295 300 301 303 305 305 303 303 302 300 297 296 295 288 281 274 267 260 257 256 255
206 176 205 208 202 202 191 194 203 214 242 237 231 145 174 216 242 250 251 259 278 291 299 301 301 302 302 302 303 302 300 298 297 296 294 289 286 284 278 273 272 271 264 261
211 202 214 205 202 197 211 220 220 226 246 265 268 135 173 220 234 240 253 275 290 298 300 301 302 302 302 301 300 298 296 295 294 292 291 288 285 280 274 271 266 262 263 261
204 201 180 208 223 225 227 221 217 234 236 240 271 229 221 228 224 254 275 289 297 301 303 302 301 301 300 298 297 297 296 295 293 290 289 287 285 282 277 272 268 266 262 261
190 196 148 264 250 245 238 238 238 236 250 240 277 239 240 245 253 269 288 294 298 300 300 301 301 300 300 300 299 298 297 296 296 295 293 291 289 287 285 282 277 270 268 267
190 199 195 152 150 182 206 227 231 229 220 259 241 270 264 270 278 287 293 295 295 295 296 295 296 297 297 297 297 297 297 296 295 293 292 292 291 290 288 287 285 282 277 273
215 221 226 239 244 246 249 248 246 250 252 257 264 274 282 288 291 294 294 296 297 299 299 300 299 298 297 297 297 297 295 293 292 290 288 288 287 288 288 288 287 285 283 280
228 218 222 240 249 257 263 259 257 255 257 260 266 273 278 283 288 291 294 297 300 302 302 302 302 302 300 299 298 297 295 294 292 291 291 290 288 287 286 286 286 286 284 282
209 213 192 165 250 264 273 249 243 252 253 257 258 268 283 288 292 297 300 303 303 302 302 303 303 304 303 302 300 299 296 294 293 292 290 288 287 287 286 286 285 286 285 285
194 185 170 157 141 234 256 211 211 228 242 260 274 278 281 287 292 295 299 302 302 303 302 302 302 302 302 302 302 301 300 298 296 294 293 291 289 287 285 284 283 283 282 282
191 173 163 168 207 286 247 221 235 257 268 275 279 281 286 289 296 296 299 300 299 299 300 300 300 300 300 300 300 299 298 297 296 295 293 292 290 288 286 284 283 282 280 280
170 180 157 170 227 271 226 208 257 289 281 274 279 282 287 294 295 295 298 300 300 300 299 299 299 299 299 299 298 298 297 296 295 295 294 293 291 289 287 285 283 281 280 279
163 174 191 214 243 267 256 270 292 274 288 288 293 295 296 297 297 297 297 298 299 299 300 300 300 300 300 299 298 296 296 295 294 293 292 292 291 289 288 286 285 283 280 278
169 166 177 198 208 249 256 282 293 293 296 297 298 297 297 297 297 298 299 299 299 299 299 299 299 299 299 298 297 298 298 297 296 296 297 296 295 294 292 290 287 284 282 280
189 205 190 212 226 265 290 294 296 298 300 301 303 304 303 303 303 303 303 303 302 302 302 302 302 303 304 304 304 304 304 302 302 302 301 301 300 299 297 295 293 291 289 286
201 207 216 241 260 275 289 298 303 305 305 305 305 305 305 306 308 308 308 308 308 308 308 308 308 308 308 307 307 307 306 305 306 305 305 304 303 302 301 300 299 297 294 292
203 220 240 262 278 293 302 307 310 310 311 311 312 312 312 312 313 313 314 313 312 312 311 311 311 310 311 309 309 309 308 306 306 305 305 304 303 303 303 303 304 303 301 299
185 189 244 281 300 306 311 314 316 319 318 318 318 317 317 316 316 315 316 315 315 314 313 312 313 313 312 310 310 310 307 306 307 306 306 305 304 304 304 304 304 303 303 301